TELKOM 3S (41944 NORAD) Tracking and Keplerian Element Data

This shows tracking and keplerian element data for the satellite.

Feedback or suggestion? Click here.




ElementValue
Catalog41944
NameTELKOM 3S
Epoch Orbit835
Epoch Day146.00474438
Epoch Year2019
RAAN349.7623
Inclination0.013
Eccentricity0.0002512
Argument of Perigee82.7462
Mean Anonmoly290.4929
Mean Motion1.00272291
Decay Rate-3.66E-06
L11 41944U 17007A 19146.00474438 -.00000366 00000-0 00000+0 0 9993
L22 41944 0.0130 349.7623 0002512 82.7462 290.4929 1.00272291 8356

Live tracking and technical data element details for TELKOM 3S (NORAD 41944). TELKOM 3S can be tracked NOW for your location showing map with azimuth and elevation plus other details from your city location.

Track the satellite on the map from your city or location and see movement details for azimuth, elevation, latitude, longitude, range, height, and movement on the map or in text.







IsCatalogInMostPopularTable: catalog: 41944, numindb: 233
Update: records affected: 1



GetName: 41944 TELKOM 3S

Hit Count: updated at: Sun, 26 May 2019 18:56:12 GMT